Location: Br�znic
(45.9167°N, 22.6500°E)
Time: 14:58:31
(UTC+00:00)

COSMOS 2428 - Pass Details

Date: 03 March 2021
Orbit: 845 x 858 km, 70.9° (Epoch: 16 April)

Event Time Altitude Azimuth Distance (km) Brightness Sun altitude
Rises 19:17:28 0° 217° (SW) 3,393 6.0 -31.1°
Reaches altitude 10° 19:19:57 10° 222° (SW) 2,462 5.3 -31.5°
Enters shadow 19:24:46 53° 269° (W) 1,035 3.3 -32.3°
Exits shadow 19:32:03 - 22° (NNE) 2,823 5.5 -33.4°
Sets 19:33:39 0° 24° (NNE) 3,424 5.9 -33.6°
